Location: Alma
(38.7220°N, 88.9090°W)
Time: 04:31:50
(UTC-06:00)

Vanguard 2 - Pass Details

Date: 19 November 2019
Orbit: 553 x 2938 km, 32.9° (Epoch: 14 December)

Event Time Altitude Azimuth Distance (km) Brightness Sun altitude
Rises 12:48:26 0° 270° (W) 3,536 11.2 29.7°
Reaches altitude 10° 12:51:52 10° 255° (WSW) 2,281 10.5 29.4°
Maximum altitude 12:55:40 21° 206° (SSW) 1,404 11.4 29.2°
Drops below altitude 10° 12:58:49 10° 155° (SSE) 1,861 10.2 29.0°
Sets 13:01:18 0° 138° (SE) 2,707 10.7 28.8°
